Find Starlink 34994

NORAD ID: 65924 Int'l Des: 2025-225 Owner: SPXS Country: US Constellation: starlink operational
LEOCIRCULAR

現在のビュー

3D地球を読み込み中...

About Starlink 34994

Starlink 34994 (NORAD 65924) is a starlink constellation satellite (v2 mini) launched Oct 8, 2025 by SPXS of US. It operates in LEO, CIRCULAR orbit with a mass of 575.00 kg.

Starlink 34994について

説明を読み込み中...

次回通過

Passes for default location (London). Set your location on the main map for personalized predictions.

高度履歴

Loading altitude history...

軌道要素

1 65924U 25225Q 26194.59569507 .00012038 00000-0 36672-3 0 9991
2 65924 53.1608 299.5295 0001227 110.1429 249.9706 15.34411253 43702
Epoch: Jul 13, 2026 • Age: 24 hours

現在のステータス

高度 467.7 km
遠地点 / 近地点 N/A
速度 7.63 km/s
衛星直下点 -18.54°S, 22.62°W
打ち上げ日 Oct 8, 2025
運用期間 0.7 years
タイプ internet

技術仕様

分類 Payload
質量 575.00 kg
乾燥質量 530.00 kg
総質量 575.00 kg
長さ 0.30 m
直径 4.10 m
スパン 29.00 m
形状 Box + pan
製造者 SPXS
バスタイプ Starlink V2MO
フェーズステータス In Orbit
所有者/国 SPXS/US

Most Searched